Showing default

SEDNA-2, 63153

Orbit data source: Space-Track

SEDNA-2, 63153 is a payload satellite owned by AAC ClydeSpace (US) in SSO that was launched on Tue, 14 Jan 2025 UTC via an FALCON 9 launch vehicle from the Air Force Western Test Range (AFWTR). Payload-class satellites include a variety of spacecraft equipped with specific instruments for various scientific and technological missions. These include communications satellites like Starlink; space stations such as the ISS; scientific satellites like the Hubble; Earth observation satellites from companies like Planet Labs, Umbra, and HawkEye 360; GPS; miniature CubeSats for education and research; and military/defense satellites.

Loading next visibility...
Identifier
63153, 2025-009DQ
Orbit
SSO
Country
Flag of USUS
Related business
Manufacturer
AAC ClydeSpace
Mission
Operational Commercial Communications
Bus & Motor
CUBESAT 1X4U, Unknown motor
Mass
~10 kg wet, ~10 kg dry
Launch date (UTC)
2025-01-14 (1 year ago)
Launch vehicle
FALCON 9
Launch site
Air Force Western Test Range (AFWTR)
Object type
Payload
Rocket body
Debris
Shape & HBR
Box, 0.4 m
Radar Cross Section
0.045 m², Medium (>0.1 m² and < 1m²)

Expand to show TLE details & history
Last TLE update: 6 hours ago

TLE from 6 hours ago
0 SEDNA-2
1 63153U 25009DQ  26034.27779869  .00009146  00000-0  56790-3 0  9994
2 63153  97.4686 111.1601 0010050 157.7262 202.4406 15.09865584 57907
Epoch: 2026-02-03T06:40Z
TLE epoch observation values (Epoch: 2026-02-03T06:40:01.806Z)
Latitude
-0.00003°
Longitude
-122.30845°
Altitude
546.111 km
Speed
7.586 km/s
True Right ascension
07h 24m 38s
True Declination
0° 00' 00"
Sunlit
Object was in full shadow at epoch
Visualization orbit readout
Latitude
Unknown
Longitude
Unknown
Altitude
Unknown
Speed
Unknown
Apparent Right ascension
Unknown
Apparent Declination
Unknown
Sunlit
N/A
Visualization observer readout
Local Sidereal Time
14:56:45
Azimuth
Unknown
Elevation
Unknown
Doppler factor
Unknown
Orbital elements
Apogee altitude
540.539 km
Perigee altitude
526.646 km
Semi-major axis
6,911.729 km
Eccentricity
0.00101
Inclination
97.4686°
RAAN
111.1601°
Arg. of periapsis
157.7262°
True anomaly
202.39669°
Mean anomaly
202.4406°
Eccentric anomaly
202.41864°
Mean motion
3.77714 °/min
Orbital period
95.31 mins
BSTAR
0.0005679
Loading maneuver chart data...
Computing Atmospheric mass density...
Loading historical data...
Loading historical data...
Loading historical data...
Loading historical data...
Loading historical data...
Loading historical data...
Loading historical data...

Documentation

Showing up to 5 results
|